sat.trackr.live / text

‹ back to catalog

HISPASAT 30W-5

NORAD 37264 · 2010-070A

PAYLOAD ACTIVE UNKNOWN

§ Identity

Operator
Country
SPN
Launch date
2010-12-29
Launch site
FRGUI
Launch vehicle
Mass (kg)
RCS (m²)
7.08

Purposes: comms

External: N2YO · Heavens-Above · Gunter

§ Orbital elements

Epoch: 2026-09-20T03:05:36.425184Z

Period
1,436.08 min
Inclination
0.0281°
Eccentricity
0.0005647
Mean motion
1.00273309 rev/d
Perigee alt
35,762.4 km
Apogee alt
35,810.0 km
Semi-major
42,164.3 km
B*
0.0000e+0
RAAN
125.2986°
Arg perigee
43.3009°
Mean anomaly
206.8396°
Rev number
5,413

§ Raw data

HISPASAT 30W-51 37264U 10070A   26263.12889381 -.00000220  00000+0  00000+0 0  99922 37264   0.0281 125.2986 0005647  43.3009 206.8396  1.00273309 54131

JSON: /api/v1/satellites/37264 · /tle

For live sub-satellite position, see the globe view (requires WebGL).

§ Visibility from observer

Set your observer location to see the next 7 days of passes ≥ 10°. The values pass through the URL so the page stays shareable.

No JS? Fill the form by hand. The geolocation button needs JavaScript.